Location: Auckland
(36.8670°S, 174.7670°E)
Time: 03:43:41
(UTC+12:00)

Tiros 1 despin weight - Pass Details

Date: 27 July 2019
Orbit: 594 x 642 km, 48.2° (Epoch: 20 August)

Event Time Altitude Azimuth Distance (km) Brightness Sun altitude
Rises 00:14:39 0° 256° (WSW) 2,849 - -72.3°
Reaches altitude 10° 00:17:26 10° 239° (WSW) 1,948 - -72.4°
Maximum altitude 00:20:49 21° 190° (S) 1,379 - -72.5°
Drops below altitude 10° 00:24:15 10° 140° (SE) 1,958 - -72.5°
Sets 00:27:02 0° 123° (ESE) 2,867 - -72.6°
